Satellite-Ground Cal/Val Region Overpasses Predictions

Prediction of Satellite NPP Overpassing Cal/Val Region: PacNW

Region Location: (Latitude: 10.00, Longitude: 139.50) to (Latitude: 22.70, Longitude: 165.60).

Table of predicted overpasses for the next 14.0 days since TLE Epoch: 6/18/2016
Interval Starting Time Starting Location Ending Time Ending Location
1 06/18/2016 14:46:48 ( 22.64, 163.44) 06/18/2016 14:50:23 ( 10.02, 160.43)
2 06/19/2016 03:37:23 ( 10.04, 145.59) 06/19/2016 03:40:58 ( 22.66, 142.59)
3 06/19/2016 14:30:51 ( 11.75, 165.59) 06/19/2016 14:31:20 ( 10.04, 165.20)
4 06/19/2016 16:09:15 ( 22.66, 142.82) 06/19/2016 16:12:50 ( 10.04, 139.82)
5 06/20/2016 03:18:20 ( 10.02, 150.36) 06/20/2016 03:21:56 ( 22.70, 147.34)
6 06/20/2016 15:50:13 ( 22.68, 147.59) 06/20/2016 15:53:48 ( 10.06, 144.58)
7 06/21/2016 02:59:19 ( 10.05, 155.10) 06/21/2016 03:02:54 ( 22.68, 152.10)
8 06/21/2016 15:31:11 ( 22.64, 152.33) 06/21/2016 15:34:46 ( 10.02, 149.33)
9 06/22/2016 02:40:16 ( 10.03, 159.87) 06/22/2016 02:43:51 ( 22.65, 156.87)
10 06/22/2016 15:12:09 ( 22.66, 157.10) 06/22/2016 15:15:44 ( 10.04, 154.10)
11 06/23/2016 02:21:14 ( 10.01, 164.63) 06/23/2016 02:24:50 ( 22.69, 161.61)
12 06/23/2016 14:53:07 ( 22.68, 161.86) 06/23/2016 14:56:43 ( 10.00, 158.85)
13 06/24/2016 03:43:42 ( 10.06, 144.00) 06/24/2016 03:47:17 ( 22.68, 141.00)
14 06/24/2016 14:35:15 ( 18.54, 165.60) 06/24/2016 14:37:40 ( 10.02, 163.61)
15 06/24/2016 16:15:34 ( 22.70, 141.25) 06/24/2016 16:17:36 ( 15.54, 139.51)
16 06/25/2016 03:24:40 ( 10.04, 148.77) 06/25/2016 03:28:15 ( 22.66, 145.76)
17 06/25/2016 15:56:33 ( 22.66, 145.99) 06/25/2016 16:00:08 ( 10.04, 142.99)
18 06/26/2016 03:05:37 ( 10.02, 153.53) 06/26/2016 03:09:13 ( 22.70, 150.51)
19 06/26/2016 15:37:30 ( 22.68, 150.76) 06/26/2016 15:41:05 ( 10.06, 147.76)
20 06/27/2016 02:46:36 ( 10.06, 158.28) 06/27/2016 02:50:11 ( 22.68, 155.28)
21 06/27/2016 15:18:28 ( 22.70, 155.52) 06/27/2016 15:22:04 ( 10.02, 152.51)
22 06/28/2016 02:27:33 ( 10.04, 163.04) 06/28/2016 02:31:08 ( 22.66, 160.04)
23
